Hourly Data Report for October 07, 2015

All times are specified in Local Standard Time (LST). Add 1 hour to adjust for Daylight Saving Time where and when it is observed.

BATHURST A
NEW BRUNSWICK

47°37'47.000" N
65°44'20.000" W
58.80 m
8100505
71574
ZBF

Download Data

Hourly Data (October 2015)
Hourly Data Report for October 7, 2015
Temp Definition
°C
Dew Point Temp Definition
°C
Rel Hum Definition
%
Wind Dir Definition
10's deg

Wind Spd Definition
km/h
Visibility Definition
km
Stn Press Definition
kPa
Hmdx Definition


Wind Chill Definition


Weather Definition


TIME
00:00 Legend Double Dagger 8.9 6.7 86 20 4 24.1 100.29     LegendNANA
01:00 Legend Double Dagger 8.9 7.0 88 20 3 24.1 100.26     LegendNANA
02:00 Legend Double Dagger 8.8 6.9 88 24 6 24.1 100.22     Cloudy
03:00 Legend Double Dagger 8.9 7.4 90 24 3 24.1 100.20     LegendNANA
04:00 Legend Double Dagger 9.6 6.7 82 24 4 24.1 100.17     LegendNANA
05:00 Legend Double Dagger 9.7 6.4 80 17 3 24.1 100.17     Cloudy
06:00 Legend Double Dagger 8.8 6.3 84 17 4 24.1 100.16     LegendNANA
07:00 Legend Double Dagger 7.0 6.0 93 16 6 24.1 100.16     LegendNANA
08:00 Legend Double Dagger 9.4 5.6 77 17 5 24.1 100.16     Mainly Clear
09:00 Legend Double Dagger 11.2 6.0 70 36 3 24.1 100.18     LegendNANA
10:00 Legend Double Dagger 13.7 6.1 60 28 8 24.1 100.12     LegendNANA
11:00 Legend Double Dagger 15.0 5.6 53 27 13 24.1 100.09     Mainly Clear
12:00 Legend Double Dagger 16.4 5.5 48 32 12 24.1 100.03     LegendNANA
13:00 Legend Double Dagger 17.1 5.5 46 27 19 24.1 99.97     LegendNANA
14:00 Legend Double Dagger 17.2 6.2 48 26 14 24.1 99.92     Mainly Clear
15:00 Legend Double Dagger 17.6 6.3 47 30 16 24.1 99.91     LegendNANA
16:00 Legend Double Dagger 15.9 8.0 59 30 5 24.1 99.94     LegendNANA
17:00 Legend Double Dagger 15.6 6.9 56 26 12 24.1 99.95     Mostly Cloudy
18:00
19:00 Legend Double Dagger 13.6 7.2 65 27 14 24.1 100.03     LegendNANA
20:00 Legend Double Dagger 11.1 8.2 82 24 13 24.1 100.05     Mostly Cloudy
21:00 Legend Double Dagger 11.3 8.2 81 28 12 24.1 100.09     LegendNANA
22:00 Legend Double Dagger 9.9 7.7 86 27 10 24.1 100.10     LegendNANA
23:00 Legend Double Dagger 9.9 6.1 77 28 16 24.1 100.16     Clear

Notes on Data Quality.

Legend

  • E = Estimated
  • M = Missing
  • NA = Not Available
  • ‡ = Partner data that is not subject to review by the National Climate Archives
Date modified: